Weather History for GMMX - October, 2012

Change the Weather History Date:

Friday, October 19, 2012

  Actual Average Record
Temperature  
Mean Temperature 62 °F -  
Max Temperature 68 °F 74 °F 97 °F (2014)
Min Temperature 55 °F 52 °F 55 °F (2012)
Degree Days  
Heating Degree Days 4    
Growing Degree Days 12 (Base 50)    
Moisture  
Dew Point 53 °F    
Average Humidity 78    
Maximum Humidity 100    
Minimum Humidity 43    
Precipitation  
Precipitation 0.04 in 0.05 in - ()
Sea Level Pressure  
Sea Level Pressure 29.88 in    
Wind  
Wind Speed 6 mph ()    
Max Wind Speed 18 mph    
Max Gust Speed -    
Visibility 6.1 miles    
Events Rain    
Averages and records for this station are not official NWS values.
T = Trace of Precipitation, MM = Missing Value Source: Averaged Metar Reports

Daily Weather History Graph

Daily Weather History Graph

Search for Another Location

Airport or City:

Trip Planner

Search our weather history database for the weather conditions in past years. The results will help you decide how hot, cold, wet, or windy it might be!

Date:

Astronomy

Oct. 19, 2012 Rise Set
Actual Time 6:38 AM WET 5:55 PM WET
Civil Twilight 6:13 AM WET 6:19 PM WET
Nautical Twilight 5:45 AM WET 6:48 PM WET
Astronomical Twilight 5:17 AM WET 7:16 PM WET
Moon 10:55 AM WET (10/19) 9:31 PM WET (10/19)
Length of Visible Light 12h 06m
Length of Day
11h 16m
Waxing Crescent, 22% of the Moon is Illuminated
Oct 19
Waxing Crescent
Oct 22
First Quarter
Oct 29
Full
Nov 7
Last Quarter
Nov 13
New

Hourly Weather History & Observations

Time (WET) Temp. Dew Point Humidity Pressure Visibility Wind Dir Wind Speed Gust Speed Precip Events Conditions
12:00 AM 55.4 °F 55.4 °F 100% 29.92 in - WSW 3.5 mph - N/A Rain Rain
12:30 AM 55.4 °F 55.4 °F 100% 29.92 in 6.2 mi WSW 3.5 mph - N/A Rain Rain
1:00 AM 55.4 °F 55.4 °F 100% 29.89 in 6.2 mi East 11.5 mph - N/A Rain Rain
1:30 AM 55.4 °F 55.4 °F 100% 29.86 in 6.2 mi ESE 13.8 mph - N/A Rain Rain
2:00 AM 57.2 °F 57.2 °F 100% 29.83 in 6.2 mi ESE 18.4 mph - N/A Rain Rain
2:30 AM 57.2 °F 55.4 °F 94% 29.83 in 6.2 mi ESE 17.3 mph - N/A Rain Rain
3:00 AM 56 °F 56 °F 98% 29.83 in 6 mi North 4.6 mph - - Rain Rain
3:00 AM 57.2 °F 55.4 °F 94% 29.83 in 6.2 mi Variable 4.6 mph - N/A Rain Rain
3:30 AM 57.2 °F 55.4 °F 94% 29.83 in 6.2 mi NNE 6.9 mph - N/A Rain Rain
4:00 AM 57.2 °F 55.4 °F 94% 29.83 in 6.2 mi NNE 8.1 mph - N/A Rain Rain
4:30 AM 57.2 °F 55.4 °F 94% 29.83 in 6.2 mi NE 9.2 mph - N/A Rain Rain
5:00 AM 57.2 °F 55.4 °F 94% 29.83 in 6.2 mi NNE 8.1 mph - N/A   Scattered Clouds
5:30 AM 57.2 °F 55.4 °F 94% 29.86 in 6.2 mi NNE 5.8 mph - N/A   Scattered Clouds
6:00 AM 57.2 °F 53.6 °F 88% 29.86 in 6.2 mi Variable 1.2 mph - N/A   Mostly Cloudy
7:30 AM 57.2 °F 55.4 °F 94% 29.86 in 6.2 mi Variable 2.3 mph - N/A   Scattered Clouds
8:00 AM 57.2 °F 55.4 °F 94% 29.86 in 6.2 mi ESE 3.5 mph - N/A   Scattered Clouds
8:30 AM 59.0 °F 55.4 °F 88% 29.89 in 6.2 mi Calm Calm - N/A   Scattered Clouds
9:00 AM 59 °F 54 °F 79% 29.87 in 6 mi South 1.2 mph - -   Mostly Cloudy
9:00 AM 59.0 °F 55.4 °F 88% 29.89 in 6.2 mi Variable 1.2 mph - N/A   Scattered Clouds
9:30 AM 60.8 °F 55.4 °F 82% 29.89 in 6.2 mi Variable 1.2 mph - N/A   Scattered Clouds
10:00 AM 60.8 °F 55.4 °F 82% 29.89 in 6.2 mi NW 3.5 mph - N/A   Scattered Clouds
10:30 AM 60.8 °F 53.6 °F 77% 29.89 in 6.2 mi NNW 3.5 mph - N/A   Mostly Cloudy
11:00 AM 62.6 °F 53.6 °F 72% 29.89 in 6.2 mi ENE 3.5 mph - N/A   Mostly Cloudy
11:30 AM 64.4 °F 53.6 °F 68% 29.89 in 6.2 mi SE 4.6 mph - N/A   Mostly Cloudy
11:46 AM 64 °F 53 °F 58% 29.85 in 6 mi West 3.5 mph - -   Mostly Cloudy
12:00 PM 64.4 °F 53.6 °F 68% 29.89 in 6.2 mi Variable 2.3 mph - N/A   Mostly Cloudy
12:30 PM 64.4 °F 53.6 °F 68% 29.86 in 6.2 mi NW 5.8 mph - N/A   Mostly Cloudy
1:00 PM 66.2 °F 51.8 °F 60% 29.86 in 6.2 mi NW 6.9 mph - N/A   Mostly Cloudy
1:30 PM 66.2 °F 51.8 °F 60% 29.86 in 6.2 mi NNW 6.9 mph - N/A   Mostly Cloudy
2:00 PM 66.2 °F 50.0 °F 56% 29.86 in 6.2 mi West 6.9 mph - N/A   Mostly Cloudy
2:30 PM 66.2 °F 50.0 °F 56% 29.86 in 6.2 mi West 6.9 mph - N/A   Mostly Cloudy
3:00 PM 67 °F 50 °F 43% 29.81 in 6 mi West 6.9 mph - -   Mostly Cloudy
3:00 PM 66.2 °F 50.0 °F 56% 29.86 in 6.2 mi West 6.9 mph - N/A   Mostly Cloudy
3:30 PM 68.0 °F 48.2 °F 49% 29.86 in 6.2 mi NNW 8.1 mph - N/A   Mostly Cloudy
4:00 PM 66.2 °F 48.2 °F 52% 29.86 in 6.2 mi WNW 8.1 mph - N/A   Mostly Cloudy
4:30 PM 66.2 °F 48.2 °F 52% 29.86 in 6.2 mi NW 8.1 mph - N/A   Mostly Cloudy
5:00 PM 66.2 °F 48.2 °F 52% 29.86 in 6.2 mi West 6.9 mph - N/A   Partly Cloudy
5:30 PM 66.2 °F 48.2 °F 52% 29.86 in 6.2 mi WSW 5.8 mph - N/A   Partly Cloudy
6:00 PM 64 °F 52 °F 57% 29.84 in 6 mi WNW 11.5 mph - -   Mostly Cloudy
6:00 PM 64.4 °F 51.8 °F 64% 29.86 in 6.2 mi WNW 11.5 mph - N/A   Partly Cloudy
6:30 PM 62.6 °F 51.8 °F 68% 29.86 in 6.2 mi WNW 10.4 mph - N/A   Partly Cloudy
7:00 PM 62.6 °F 51.8 °F 68% 29.89 in 6.2 mi NW 9.2 mph - N/A   Partly Cloudy
7:30 PM 62.6 °F 51.8 °F 68% 29.89 in 6.2 mi WNW 8.1 mph - N/A   Partly Cloudy
8:00 PM 60.8 °F 53.6 °F 77% 29.92 in 6.2 mi West 5.8 mph - N/A   Partly Cloudy
8:30 PM 59.0 °F 51.8 °F 77% 29.92 in 6.2 mi SSW 13.8 mph - N/A   Partly Cloudy
9:00 PM 56 °F 54 °F 90% 29.92 in 5 mi South 12.7 mph - - Rain Light Rain Showers
9:00 PM 57.2 °F 53.6 °F 88% 29.92 in 5.0 mi South 12.7 mph - N/A Rain Rain Showers
9:30 PM 57.2 °F 53.6 °F 88% 29.92 in 5.0 mi South 10.4 mph - N/A Rain Rain Showers
10:00 PM 57.2 °F 53.6 °F 88% 29.95 in 5.0 mi SW 6.9 mph - N/A   Partly Cloudy
10:30 PM 57.2 °F 53.6 °F 88% 29.95 in 6.2 mi SSW 8.1 mph - N/A   Partly Cloudy
11:00 PM 57.2 °F 53.6 °F 88% 29.95 in 6.2 mi SSW 4.6 mph - N/A   Partly Cloudy
11:30 PM 57.2 °F 53.6 °F 88% 29.95 in 6.2 mi SSW 4.6 mph - N/A   Mostly Cloudy